Weather History for KAFK - November, 2012

Change the Weather History Date:

Sunday, November 18, 2012

  Actual Average (KSDA) Record (KSDA)
Temperature  
Mean Temperature 51 °F -  
Max Temperature 62 °F 51 °F 77 °F (1999)
Min Temperature 40 °F 31 °F 5 °F (2014)
Degree Days  
Heating Degree Days 14    
Growing Degree Days 1 (Base 50)    
Moisture  
Dew Point 32 °F    
Average Humidity 48    
Maximum Humidity 64    
Minimum Humidity 33    
Precipitation  
Precipitation 0.00 in - - ()
Sea Level Pressure  
Sea Level Pressure 30.12 in    
Wind  
Wind Speed 14 mph (South)    
Max Wind Speed 20 mph    
Max Gust Speed 26 mph    
Visibility 10 miles    
Events Rain    
Averages and records for this station are not official NWS values.
T = Trace of Precipitation, MM = Missing Value Source: NWS Daily Summary

Daily Weather History Graph

Daily Weather History Graph

Search for Another Location

Airport or City:

Trip Planner

Search our weather history database for the weather conditions in past years. The results will help you decide how hot, cold, wet, or windy it might be!

Date:

Astronomy

Nov. 18, 2012 Rise Set
Actual Time 7:14 AM CST 5:03 PM CST
Civil Twilight 6:44 AM CST 5:32 PM CST
Nautical Twilight 6:11 AM CST 6:05 PM CST
Astronomical Twilight 5:38 AM CST 6:38 PM CST
Moon 11:41 AM CST (11/18) 10:24 PM CST (11/18)
Length of Visible Light 10h 48m
Length of Day
9h 48m
Waxing Crescent, 30% of the Moon is Illuminated
Nov 18
Waxing Crescent
Nov 20
First Quarter
Nov 28
Full
Dec 6
Last Quarter
Dec 13
New

Hourly Weather History & Observations

Time (CST) Temp. Windchill Dew Point Humidity Pressure Visibility Wind Dir Wind Speed Gust Speed Precip Events Conditions
12:15 AM 46.4 °F 40.4 °F 28.2 °F 49% 30.19 in 10.0 mi South 13.8 mph - N/A   Scattered Clouds
12:35 AM 46.9 °F - 28.2 °F 48% 30.19 in 10.0 mi South 12.7 mph - N/A   Mostly Cloudy
1:15 AM 46.9 °F - 28.2 °F 48% 30.18 in 10.0 mi South 13.8 mph - N/A   Overcast
1:55 AM 47.5 °F - 28.0 °F 47% 30.18 in 10.0 mi South 11.5 mph - N/A   Overcast
2:15 AM 46.6 °F - 27.9 °F 48% 30.17 in 10.0 mi South 12.7 mph - N/A   Mostly Cloudy
2:35 AM 45.1 °F 39.9 °F 28.4 °F 52% 30.17 in 10.0 mi South 10.4 mph - N/A   Mostly Cloudy
2:55 AM 44.8 °F 38.7 °F 28.4 °F 53% 30.17 in 10.0 mi South 12.7 mph - N/A   Scattered Clouds
3:15 AM 45.5 °F 39.6 °F 27.9 °F 50% 30.17 in 10.0 mi South 12.7 mph - N/A   Clear
3:35 AM 44.8 °F 38.7 °F 28.0 °F 52% 30.17 in 10.0 mi South 12.7 mph 18.4 mph N/A   Clear
3:55 AM 43.5 °F 37.1 °F 28.4 °F 55% 30.16 in 10.0 mi South 12.7 mph - N/A   Clear
4:15 AM 42.8 °F 36.6 °F 28.4 °F 57% 30.16 in 10.0 mi South 11.5 mph - N/A   Clear
4:35 AM 41.9 °F 36.3 °F 28.8 °F 60% 30.16 in 10.0 mi SSE 9.2 mph - N/A   Clear
4:55 AM 41.2 °F 35.5 °F 28.8 °F 61% 30.16 in 10.0 mi South 9.2 mph - N/A   Clear
5:15 AM 40.8 °F 35.6 °F 29.1 °F 63% 30.16 in 10.0 mi South 8.1 mph - N/A   Scattered Clouds
5:35 AM 40.5 °F 35.1 °F 29.3 °F 64% 30.16 in 10.0 mi South 8.1 mph - N/A   Scattered Clouds
5:55 AM 41.0 °F 35.8 °F 29.3 °F 63% 30.16 in 10.0 mi SSE 8.1 mph - N/A   Clear
6:15 AM 41.4 °F 35.7 °F 29.3 °F 62% 30.15 in 10.0 mi South 9.2 mph - N/A   Clear
6:35 AM 41.9 °F 36.3 °F 29.5 °F 61% 30.15 in 10.0 mi South 9.2 mph - N/A   Clear
6:55 AM 41.9 °F 35.9 °F 29.3 °F 61% 30.15 in 10.0 mi South 10.4 mph - N/A   Clear
7:15 AM 41.5 °F 35.4 °F 29.3 °F 62% 30.16 in 10.0 mi South 10.4 mph - N/A   Clear
7:35 AM 41.9 °F 35.0 °F 29.7 °F 62% 30.15 in 10.0 mi South 12.7 mph - N/A   Clear
7:55 AM 43.0 °F 36.8 °F 30.0 °F 60% 30.15 in 10.0 mi South 11.5 mph - N/A   Clear
8:15 AM 44.6 °F 38.4 °F 30.2 °F 57% 30.15 in 10.0 mi South 12.7 mph - N/A   Clear
8:35 AM 46.0 °F 39.9 °F 30.2 °F 54% 30.16 in 10.0 mi South 13.8 mph - N/A   Clear
8:55 AM 47.1 °F - 30.6 °F 53% 30.16 in 10.0 mi South 15.0 mph 19.6 mph N/A   Clear
9:15 AM 49.1 °F - 30.4 °F 49% 30.16 in 10.0 mi South 17.3 mph - N/A   Clear
9:35 AM 50.4 °F - 31.3 °F 48% 30.16 in 10.0 mi South 15.0 mph 19.6 mph N/A   Clear
9:55 AM 52.3 °F - 31.5 °F 45% 30.15 in 10.0 mi South 16.1 mph - N/A   Clear
10:15 AM 54.5 °F - 31.1 °F 41% 30.15 in 10.0 mi South 18.4 mph 23.0 mph N/A   Clear
10:35 AM 56.3 °F - 31.1 °F 38% 30.15 in 10.0 mi South 17.3 mph 23.0 mph N/A   Clear
10:55 AM 56.8 °F - 30.4 °F 37% 30.14 in 10.0 mi SSW 18.4 mph 23.0 mph N/A   Clear
11:15 AM 57.4 °F - 30.4 °F 36% 30.14 in 10.0 mi South 19.6 mph 25.3 mph N/A   Clear
11:35 AM 58.3 °F - 31.3 °F 36% 30.13 in 10.0 mi South 18.4 mph 23.0 mph N/A   Clear
11:55 AM 59.0 °F - 31.6 °F 36% 30.12 in 10.0 mi South 18.4 mph 21.9 mph N/A   Clear
12:15 PM 60.3 °F - 32.2 °F 35% 30.11 in 10.0 mi South 13.8 mph 20.7 mph N/A   Clear
12:35 PM 60.3 °F - 31.6 °F 34% 30.11 in 10.0 mi South 18.4 mph - N/A   Clear
12:55 PM 59.9 °F - 32.0 °F 35% 30.10 in 10.0 mi South 15.0 mph - N/A   Clear
1:15 PM 60.3 °F - 32.4 °F 35% 30.10 in 10.0 mi South 12.7 mph 19.6 mph N/A   Clear
1:35 PM 61.2 °F - 32.9 °F 35% 30.08 in 10.0 mi South 13.8 mph 20.7 mph N/A   Clear
1:55 PM 62.6 °F - 33.1 °F 33% 30.07 in 10.0 mi South 15.0 mph 20.7 mph N/A   Clear
2:15 PM 62.1 °F - 33.4 °F 34% 30.08 in 10.0 mi South 17.3 mph - N/A   Scattered Clouds
2:35 PM 61.9 °F - 33.6 °F 35% 30.07 in 10.0 mi South 19.6 mph - N/A   Overcast
2:55 PM 60.3 °F - 33.1 °F 36% 30.06 in 10.0 mi South 19.6 mph 24.2 mph N/A   Scattered Clouds
3:15 PM 60.3 °F - 34.3 °F 38% 30.06 in 10.0 mi South 16.1 mph 21.9 mph N/A   Clear
3:35 PM 60.1 °F - 34.5 °F 38% 30.06 in 10.0 mi SSE 12.7 mph 19.6 mph N/A   Clear
3:55 PM 59.4 °F - 34.2 °F 39% 30.07 in 10.0 mi South 18.4 mph 23.0 mph N/A   Clear
4:15 PM 59.2 °F - 34.2 °F 39% 30.08 in 10.0 mi SSE 16.1 mph 25.3 mph N/A   Scattered Clouds
4:35 PM 59.0 °F - 34.0 °F 39% 30.08 in 10.0 mi SSE 18.4 mph 25.3 mph N/A   Mostly Cloudy
4:55 PM 58.6 °F - 34.0 °F 40% 30.08 in 10.0 mi SSE 16.1 mph 21.9 mph N/A   Overcast
5:15 PM 58.3 °F - 34.2 °F 40% 30.08 in 10.0 mi SSE 16.1 mph 21.9 mph N/A   Overcast
5:35 PM 58.1 °F - 34.2 °F 41% 30.07 in 10.0 mi SSE 15.0 mph 23.0 mph N/A   Overcast
5:55 PM 57.7 °F - 34.7 °F 42% 30.08 in 10.0 mi SSE 15.0 mph 21.9 mph N/A   Overcast
6:15 PM 57.6 °F - 34.9 °F 43% 30.09 in 10.0 mi South 18.4 mph 25.3 mph N/A   Overcast
6:35 PM 57.4 °F - 35.6 °F 44% 30.10 in 10.0 mi South 17.3 mph - N/A   Overcast
6:55 PM 56.8 °F - 35.6 °F 45% 30.10 in 10.0 mi SSE 13.8 mph - N/A   Mostly Cloudy
7:15 PM 56.7 °F - 35.6 °F 45% 30.09 in 10.0 mi SSE 16.1 mph 21.9 mph N/A   Scattered Clouds
7:35 PM 56.3 °F - 36.1 °F 47% 30.09 in 10.0 mi South 16.1 mph 24.2 mph N/A   Mostly Cloudy
7:55 PM 55.6 °F - 36.5 °F 49% 30.09 in 10.0 mi South 16.1 mph - N/A   Overcast
8:15 PM 55.4 °F - 36.5 °F 49% 30.09 in 10.0 mi South 18.4 mph 21.9 mph N/A   Overcast
8:35 PM 54.1 °F - 37.8 °F 54% 30.09 in 10.0 mi South 16.1 mph 20.7 mph N/A   Overcast
8:55 PM 54.7 °F - 37.4 °F 52% 30.08 in 10.0 mi South 17.3 mph 26.5 mph N/A Rain Light Rain
9:15 PM 54.9 °F - 36.5 °F 50% 30.09 in 10.0 mi South 17.3 mph 21.9 mph N/A   Mostly Cloudy
9:35 PM 54.0 °F - 36.5 °F 52% 30.09 in 10.0 mi South 16.1 mph - N/A   Scattered Clouds
9:55 PM 53.8 °F - 36.1 °F 51% 30.08 in 10.0 mi South 15.0 mph - N/A   Scattered Clouds
10:35 PM 53.2 °F - 35.8 °F 52% 30.08 in 10.0 mi South 15.0 mph 20.7 mph N/A   Clear
10:55 PM 52.9 °F - 35.8 °F 52% 30.07 in 10.0 mi South 15.0 mph - N/A   Clear
11:15 PM 52.7 °F - 35.6 °F 52% 30.07 in 10.0 mi South 13.8 mph 20.7 mph N/A   Clear
11:35 PM 52.0 °F - 35.2 °F 53% 30.07 in 10.0 mi South 13.8 mph - N/A   Clear
11:55 PM 51.6 °F - 35.1 °F 53% 30.07 in 10.0 mi South 15.0 mph - N/A   Clear